Date,TemperatureHighF,TemperatureAvgF,TemperatureLowF,DewpointHighF,DewpointAvgF,DewpointLowF,HumidityHigh,HumidityAvg,HumidityLow,PressureMaxIn,PressureMinIn,WindSpeedMaxMPH,WindSpeedAvgMPH,GustSpeedMaxMPH,PrecipitationSumIn
2013-6-1,80.2,66.3,51.3,33.4,26.5,20.6,41,23,15,30.15,30.09,6,1,12,0.00
2013-6-2,78.6,65.8,52.5,35.8,27.9,20.2,34,24,18,30.12,30.00,8,2,16,0.00
2013-6-3,77.4,64.3,50.0,32.7,23.1,15.5,29,21,15,30.06,29.97,8,2,13,0.00
2013-6-4,77.9,63.5,48.2,26.5,19.4,5.2,26,19,10,30.12,30.03,6,1,13,0.00
2013-6-5,81.9,65.9,49.5,31.1,18.4,-3.0,27,17,7,30.15,30.12,7,1,12,0.00
2013-6-6,84.7,67.5,52.0,33.0,22.9,3.0,29,19,11,30.15,30.12,7,1,13,0.00
2013-6-7,84.7,69.4,54.3,33.8,24.2,4.7,28,19,6,30.15,30.09,3,0,8,0.04
2013-6-8,88.1,71.1,56.7,36.0,21.7,8.6,28,18,6,30.15,30.09,6,1,13,0.00
2013-6-9,81.5,69.2,57.7,30.8,22.4,6.6,23,17,7,30.15,30.09,8,2,13,0.00
2013-6-10,69.6,60.9,52.9,28.0,8.8,-1.8,24,13,10,30.12,30.03,13,4,22,0.00
2013-6-11,78.9,65.3,52.9,31.7,10.5,-0.2,36,13,7,30.21,30.09,8,1,12,0.00
2013-6-12,78.4,65.4,55.2,32.7,8.1,3.5,21,11,8,30.18,30.15,8,2,15,0.04
2013-6-13,78.3,64.7,52.3,30.8,7.2,-1.8,25,10,8,30.18,30.12,8,2,12,0.04
2013-6-14,77.9,63.7,48.7,19.1,5.3,-3.6,12,10,8,30.12,30.06,7,2,13,0.00
2013-6-15,75.2,63.1,50.6,11.7,4.6,-2.1,17,10,8,30.12,30.06,7,2,13,0.00
2013-6-16,78.6,62.6,45.5,27.3,8.3,-4.4,26,13,8,30.18,30.12,6,1,12,0.00
2013-6-17,80.8,64.5,46.8,32.9,22.9,9.9,28,21,14,30.18,30.12,7,1,11,0.04
2013-6-18,80.2,64.7,52.5,28.3,22.4,15.2,28,21,15,30.12,30.03,8,2,15,0.00
2013-6-19,75.9,62.2,50.0,33.0,22.0,13.9,27,22,15,30.03,29.97,6,2,10,0.00
2013-6-20,76.6,62.2,48.6,30.5,21.0,8.2,37,21,15,30.06,30.00,8,1,10,0.00
2013-6-21,77.9,64.1,52.3,33.6,25.9,19.0,35,24,15,30.09,30.03,6,1,10,0.00
2013-6-22,78.8,64.6,51.6,38.9,27.2,18.0,37,25,15,30.09,30.03,7,1,11,0.04
2013-6-23,73.8,61.9,52.5,34.8,29.1,24.6,46,30,18,30.06,29.97,7,2,12,0.00
2013-6-24,67.6,58.6,51.1,43.2,34.6,21.9,73,42,25,30.09,29.94,8,4,15,0.00
2013-6-25,78.1,65.1,51.3,47.2,41.0,36.4,68,45,23,30.18,30.06,8,2,12,0.00
2013-6-26,82.0,69.9,58.5,46.4,39.6,35.9,61,36,20,30.26,30.18,6,1,12,0.00
2013-6-27,85.5,70.8,57.9,43.7,36.9,25.4,52,30,20,30.30,30.26,6,1,13,0.00
2013-6-28,88.3,72.9,58.5,40.6,31.4,20.6,34,22,15,30.30,30.24,8,1,13,0.04
2013-6-29,92.2,75.1,61.7,40.2,31.5,25.3,32,21,12,30.26,30.18,6,1,13,0.00
2013-6-30,89.8,75.0,62.1,38.7,30.7,21.6,24,20,15,30.21,30.15,8,1,14,0.00